Flag for U.S.A. Weather past 2 weeks in Houston, Texas, U.S.A.

Now
61 °F

Partly cloudy.


Feels Like: 61 °F
Forecast: 60 / 72 °F
Wind: 8 mph from East

Location: Houston Hobby Airport


UV Index: 0 (Low)

Visibility: 10 mi


Pressure: 30.06 "Hg

Humidity: 81%

Dew point: 55 °F

Location of HoustonLocation

Historic Weather in Houston

°F

Houston temperature yesterday

Maximum temperature yesterday: 66 °F (at 3:53 PM)
Minimum temperature yesterday: 44 °F (at 3:53 AM)
Average temperature yesterday: 57 °F

Past Weeks' High & Low Weather Summary

 TemperatureHumidityPressure
High80 °F (Apr 10, 2:53 PM)97% (Apr 4, 1:53 AM)30.32 "Hg (Apr 4, 1:53 AM)
Low43 °F (Apr 15, 6:53 AM)19% (Apr 8, 5:53 PM)29.64 "Hg (Apr 6, 3:53 PM)
Average66 °F69%29.99 "Hg
* Reported Apr 2 6:53 AM — Apr 17 6:53 AM, Houston, Weather by CustomWeather, © 2014

Note: Actual official high and low records may vary slightly from our data, if they occured in-between our weather recording intervals... More about our weather records

Advertising

Historic Weather Conditions — Data for Previous 24 hours

 ConditionsComfort  
Time TempWeatherWind HumidityBarometerVisibility
6:53 AM
Apr 17
61 °FPartly cloudy.8 mph81%30.06 "Hg10 mi
5:53 AM60 °FPartly cloudy.6 mph83%30.06 "Hg10 mi
4:53 AM61 °FPassing clouds.3 mph81%30.06 "Hg9 mi
3:53 AM61 °FPassing clouds.No wind78%30.06 "Hg9 mi
2:53 AM60 °FPassing clouds.5 mph78%30.06 "Hg9 mi
1:53 AM60 °FPassing clouds.3 mph78%30.06 "Hg9 mi
12:53 AM60 °FPassing clouds.6 mph78%30.06 "Hg10 mi
11:53 PM
Apr 16
59 °FPassing clouds.7 mph81%30.06 "Hg10 mi
10:53 PM59 °FPassing clouds.6 mph78%30.06 "Hg10 mi
9:53 PM60 °FPassing clouds.9 mph72%30.05 "Hg10 mi
8:53 PM60 °FPassing clouds.7 mph69%30.05 "Hg10 mi
7:53 PM61 °FBroken clouds.9 mph67%30.05 "Hg10 mi
6:53 PM64 °FPartly sunny.10 mph58%30.05 "Hg10 mi
5:53 PM64 °FPartly sunny.10 mph56%30.05 "Hg10 mi
4:53 PM65 °FPartly sunny.9 mph52%30.05 "Hg10 mi
3:53 PM66 °FPartly sunny.10 mph50%30.08 "Hg10 mi
2:53 PM64 °FScattered clouds.12 mph50%30.10 "Hg10 mi
1:53 PM62 °FPartly sunny.15 mph48%30.13 "Hg10 mi
12:53 PM63 °FPartly sunny.12 mph47%30.16 "Hg10 mi
11:53 AM63 °FPartly sunny.13 mph48%30.19 "Hg10 mi
10:53 AM61 °FBroken clouds.13 mph52%30.20 "Hg10 mi
9:53 AM59 °FScattered clouds.12 mph54%30.20 "Hg10 mi
8:53 AM56 °FScattered clouds.12 mph62%30.18 "Hg10 mi
7:53 AM52 °FPassing clouds.8 mph69%30.18 "Hg10 mi
Weather by CustomWeather, © 2014

See weather overview